Time,TemperatureF,DewpointF,PressureIn,WindDirection,WindDirectionDegrees,WindSpeedMPH,WindSpeedGustMPH,Humidity,HourlyPrecipIn,Conditions,Clouds,dailyrainin,SoftwareType,DateUTC
2013-04-29 00:03:00,57.0,40.0,-100.00,SE,133,9.0,-999.0,51,-99.99,,,-99.99,,2013-04-29 04:03:00,
2013-04-29 00:13:00,57.0,40.0,-100.00,SE,133,9.0,-999.0,51,-99.99,,,-99.99,,2013-04-29 04:13:00,
2013-04-29 00:23:00,57.0,40.0,-100.00,SE,138,10.0,-999.0,52,-99.99,,,-99.99,,2013-04-29 04:23:00,
2013-04-29 00:33:00,57.0,40.0,-100.00,SE,128,9.0,-999.0,53,-99.99,,,-99.99,,2013-04-29 04:33:00,
2013-04-29 00:43:00,57.0,40.0,-100.00,SE,128,9.0,-999.0,53,-99.99,,,-99.99,,2013-04-29 04:43:00,
2013-04-29 00:52:00,57.0,41.0,-100.00,SSE,147,8.0,-999.0,55,-99.99,,,-99.99,,2013-04-29 04:52:00,
2013-04-29 01:02:00,57.0,42.0,-100.00,SE,145,9.0,-999.0,56,-99.99,,,-99.99,,2013-04-29 05:02:00,
2013-04-29 01:12:00,57.0,42.0,-100.00,SE,145,9.0,-999.0,56,-99.99,,,-99.99,,2013-04-29 05:12:00,
2013-04-29 01:22:00,57.0,43.0,-100.00,SE,146,9.0,-999.0,58,-99.99,,,-99.99,,2013-04-29 05:22:00,
2013-04-29 01:32:00,57.0,43.0,-100.00,SE,146,9.0,-999.0,58,-99.99,,,-99.99,,2013-04-29 05:32:00,
2013-04-29 01:42:00,57.0,43.0,-100.00,SE,146,9.0,-999.0,58,-99.99,,,-99.99,,2013-04-29 05:42:00,
2013-04-29 01:52:00,56.0,45.0,-100.00,SSE,167,9.0,-999.0,64,-99.99,,,-99.99,,2013-04-29 05:52:00,
2013-04-29 02:02:00,56.0,45.0,-100.00,SSE,167,9.0,-999.0,64,-99.99,,,-99.99,,2013-04-29 06:02:00,
2013-04-29 02:12:00,56.0,45.0,-100.00,SSE,167,9.0,-999.0,64,-99.99,,,-99.99,,2013-04-29 06:12:00,
2013-04-29 02:21:00,54.0,48.0,-100.00,South,184,9.0,-999.0,81,-99.99,,,-99.99,,2013-04-29 06:21:00,
2013-04-29 02:32:00,54.0,48.0,-100.00,South,184,9.0,-999.0,81,-99.99,,,-99.99,,2013-04-29 06:32:00,
2013-04-29 02:42:00,54.0,48.0,-100.00,South,184,9.0,-999.0,81,-99.99,,,-99.99,,2013-04-29 06:42:00,
2013-04-29 02:52:00,53.0,49.0,-100.00,SSE,156,7.0,-999.0,87,-99.99,,,-99.99,,2013-04-29 06:52:00,
2013-04-29 03:01:00,53.0,49.0,-100.00,SSE,156,7.0,-999.0,87,-99.99,,,-99.99,,2013-04-29 07:01:00,
2013-04-29 03:11:00,53.0,49.0,-100.00,SSE,156,7.0,-999.0,87,-99.99,,,-99.99,,2013-04-29 07:11:00,
2013-04-29 03:22:00,52.0,50.0,-100.00,ESE,113,7.0,-999.0,93,-99.99,,,-99.99,,2013-04-29 07:22:00,
2013-04-29 03:32:00,52.0,50.0,-100.00,ESE,113,7.0,-999.0,93,-99.99,,,-99.99,,2013-04-29 07:32:00,
2013-04-29 03:42:00,52.0,50.0,-100.00,ESE,113,7.0,-999.0,93,-99.99,,,-99.99,,2013-04-29 07:42:00,
2013-04-29 03:52:00,52.0,51.0,-100.00,ESE,109,5.0,-999.0,93,-99.99,,,-99.99,,2013-04-29 07:52:00,
2013-04-29 04:03:00,52.0,51.0,-100.00,ESE,109,5.0,-999.0,93,-99.99,,,-99.99,,2013-04-29 08:03:00,
2013-04-29 04:11:00,52.0,51.0,-100.00,ESE,109,5.0,-999.0,93,-99.99,,,-99.99,,2013-04-29 08:11:00,
2013-04-29 04:22:00,53.0,51.0,-100.00,ESE,112,7.0,-999.0,94,-99.99,,,-99.99,,2013-04-29 08:22:00,
2013-04-29 04:32:00,53.0,51.0,-100.00,ESE,112,7.0,-999.0,94,-99.99,,,-99.99,,2013-04-29 08:32:00,
2013-04-29 04:42:00,53.0,51.0,-100.00,ESE,112,7.0,-999.0,94,-99.99,,,-99.99,,2013-04-29 08:42:00,
2013-04-29 04:52:00,53.0,52.0,-100.00,ESE,112,8.0,-999.0,94,-99.99,,,-99.99,,2013-04-29 08:52:00,
2013-04-29 05:01:00,53.0,52.0,-100.00,ESE,112,8.0,-999.0,94,-99.99,,,-99.99,,2013-04-29 09:01:00,
2013-04-29 05:12:00,53.0,52.0,-100.00,ESE,112,8.0,-999.0,94,-99.99,,,-99.99,,2013-04-29 09:12:00,
2013-04-29 05:21:00,53.0,52.0,-100.00,ESE,121,6.0,-999.0,94,-99.99,,,-99.99,,2013-04-29 09:21:00,
2013-04-29 05:33:00,53.0,52.0,-100.00,ESE,121,6.0,-999.0,94,-99.99,,,-99.99,,2013-04-29 09:33:00,
2013-04-29 05:42:00,53.0,52.0,-100.00,ESE,121,6.0,-999.0,94,-99.99,,,-99.99,,2013-04-29 09:42:00,
2013-04-29 05:53:00,53.0,52.0,-100.00,ESE,116,6.0,-999.0,96,-99.99,,,-99.99,,2013-04-29 09:53:00,
2013-04-29 06:02:00,53.0,52.0,-100.00,ESE,116,6.0,-999.0,96,-99.99,,,-99.99,,2013-04-29 10:02:00,
2013-04-29 06:12:00,53.0,52.0,-100.00,ESE,116,6.0,-999.0,96,-99.99,,,-99.99,,2013-04-29 10:12:00,
2013-04-29 06:23:00,53.0,53.0,-100.00,ESE,111,6.0,-999.0,96,-99.99,,,-99.99,,2013-04-29 10:23:00,
2013-04-29 06:32:00,53.0,53.0,-100.00,ESE,111,6.0,-999.0,96,-99.99,,,-99.99,,2013-04-29 10:32:00,
2013-04-29 06:42:00,53.0,53.0,-100.00,ESE,111,6.0,-999.0,96,-99.99,,,-99.99,,2013-04-29 10:42:00,
2013-04-29 06:52:00,53.0,53.0,-100.00,ESE,107,6.0,-999.0,97,-99.99,,,-99.99,,2013-04-29 10:52:00,
2013-04-29 07:03:00,53.0,53.0,-100.00,ESE,107,6.0,-999.0,97,-99.99,,,-99.99,,2013-04-29 11:03:00,
2013-04-29 07:12:00,53.0,53.0,-100.00,ESE,107,6.0,-999.0,97,-99.99,,,-99.99,,2013-04-29 11:12:00,
2013-04-29 07:22:00,53.0,53.0,-100.00,ESE,105,6.0,-999.0,97,-99.99,,,-99.99,,2013-04-29 11:22:00,
2013-04-29 07:32:00,54.0,53.0,-100.00,ESE,108,5.0,-999.0,97,-99.99,,,-99.99,,2013-04-29 11:32:00,
2013-04-29 07:42:00,54.0,53.0,-100.00,ESE,108,5.0,-999.0,97,-99.99,,,-99.99,,2013-04-29 11:42:00,
2013-04-29 07:52:00,54.0,53.0,-100.00,ESE,107,5.0,-999.0,97,-99.99,,,-99.99,,2013-04-29 11:52:00,
2013-04-29 08:01:00,54.0,53.0,-100.00,East,92,5.0,-999.0,97,-99.99,,,-99.99,,2013-04-29 12:01:00,
2013-04-29 08:12:00,54.0,53.0,-100.00,East,92,5.0,-999.0,97,-99.99,,,-99.99,,2013-04-29 12:12:00,
2013-04-29 08:22:00,54.0,53.0,-100.00,East,88,4.0,-999.0,97,-99.99,,,-99.99,,2013-04-29 12:22:00,
2013-04-29 08:32:00,54.0,53.0,-100.00,East,85,5.0,-999.0,97,-99.99,,,-99.99,,2013-04-29 12:32:00,
2013-04-29 08:42:00,54.0,53.0,-100.00,East,85,5.0,-999.0,97,-99.99,,,-99.99,,2013-04-29 12:42:00,
2013-04-29 08:52:00,54.0,54.0,-100.00,East,94,6.0,-999.0,97,-99.99,,,-99.99,,2013-04-29 12:52:00,
2013-04-29 09:01:00,54.0,54.0,-100.00,East,87,6.0,-999.0,97,-99.99,,,-99.99,,2013-04-29 13:01:00,
2013-04-29 09:11:00,54.0,54.0,-100.00,East,87,6.0,-999.0,97,-99.99,,,-99.99,,2013-04-29 13:11:00,
2013-04-29 09:21:00,54.0,54.0,-100.00,East,95,7.0,-999.0,98,-99.99,,,-99.99,,2013-04-29 13:21:00,
2013-04-29 09:32:00,55.0,54.0,-100.00,East,101,7.0,-999.0,98,-99.99,,,-99.99,,2013-04-29 13:32:00,
2013-04-29 09:42:00,55.0,54.0,-100.00,East,101,7.0,-999.0,98,-99.99,,,-99.99,,2013-04-29 13:42:00,
2013-04-29 09:52:00,55.0,54.0,-100.00,East,94,7.0,-999.0,97,-99.99,,,-99.99,,2013-04-29 13:52:00,
2013-04-29 10:02:00,55.0,54.0,-100.00,East,94,6.0,-999.0,97,-99.99,,,-99.99,,2013-04-29 14:02:00,
2013-04-29 10:11:00,55.0,54.0,-100.00,East,94,6.0,-999.0,97,-99.99,,,-99.99,,2013-04-29 14:11:00,
2013-04-29 10:21:00,55.0,55.0,-100.00,East,95,7.0,-999.0,97,-99.99,,,-99.99,,2013-04-29 14:21:00,
2013-04-29 10:32:00,56.0,55.0,-100.00,East,91,6.0,-999.0,97,-99.99,,,-99.99,,2013-04-29 14:32:00,
2013-04-29 10:42:00,56.0,55.0,-100.00,East,91,6.0,-999.0,97,-99.99,,,-99.99,,2013-04-29 14:42:00,
2013-04-29 10:52:00,56.0,55.0,-100.00,ESE,103,5.0,-999.0,98,-99.99,,,-99.99,,2013-04-29 14:52:00,
2013-04-29 11:01:00,56.0,56.0,-100.00,East,92,5.0,-999.0,98,-99.99,,,-99.99,,2013-04-29 15:01:00,
2013-04-29 11:12:00,56.0,56.0,-100.00,East,92,5.0,-999.0,98,-99.99,,,-99.99,,2013-04-29 15:12:00,
2013-04-29 11:21:00,56.0,56.0,-100.00,East,91,5.0,-999.0,98,-99.99,,,-99.99,,2013-04-29 15:21:00,
2013-04-29 11:33:00,57.0,56.0,-100.00,East,96,5.0,-999.0,98,-99.99,,,-99.99,,2013-04-29 15:33:00,
2013-04-29 11:42:00,57.0,56.0,-100.00,East,96,5.0,-999.0,98,-99.99,,,-99.99,,2013-04-29 15:42:00,
2013-04-29 11:53:00,57.0,57.0,-100.00,East,101,5.0,-999.0,98,-99.99,,,-99.99,,2013-04-29 15:53:00,
2013-04-29 12:03:00,57.0,57.0,-100.00,ESE,113,6.0,-999.0,98,-99.99,,,-99.99,,2013-04-29 16:03:00,
2013-04-29 12:12:00,57.0,57.0,-100.00,ESE,113,6.0,-999.0,98,-99.99,,,-99.99,,2013-04-29 16:12:00,
2013-04-29 12:23:00,58.0,58.0,-100.00,SE,127,5.0,-999.0,98,-99.99,,,-99.99,,2013-04-29 16:23:00,
2013-04-29 12:33:00,58.0,57.0,-100.00,SE,139,9.0,-999.0,96,-99.99,,,-99.99,,2013-04-29 16:33:00,
2013-04-29 12:42:00,58.0,57.0,-100.00,SE,139,9.0,-999.0,96,-99.99,,,-99.99,,2013-04-29 16:42:00,
2013-04-29 12:52:00,59.0,57.0,-100.00,SSE,151,10.0,-999.0,93,-99.99,,,-99.99,,2013-04-29 16:52:00,
2013-04-29 13:02:00,59.0,57.0,-100.00,SSE,149,10.0,-999.0,92,-99.99,,,-99.99,,2013-04-29 17:02:00,
2013-04-29 13:12:00,59.0,57.0,-100.00,SSE,149,10.0,-999.0,92,-99.99,,,-99.99,,2013-04-29 17:12:00,
2013-04-29 13:22:00,59.0,57.0,-100.00,SSE,150,8.0,-999.0,91,-99.99,,,-99.99,,2013-04-29 17:22:00,
2013-04-29 13:32:00,59.0,57.0,-100.00,SSE,159,8.0,-999.0,90,-99.99,,,-99.99,,2013-04-29 17:32:00,
2013-04-29 13:42:00,59.0,57.0,-100.00,SSE,159,8.0,-999.0,90,-99.99,,,-99.99,,2013-04-29 17:42:00,
2013-04-29 13:52:00,59.0,57.0,-100.00,SSE,150,10.0,-999.0,91,-99.99,,,-99.99,,2013-04-29 17:52:00,
2013-04-29 14:01:00,59.0,56.0,-100.00,SE,137,11.0,-999.0,92,-99.99,,,-99.99,,2013-04-29 18:01:00,
2013-04-29 14:13:00,59.0,56.0,-100.00,SE,137,11.0,-999.0,92,-99.99,,,-99.99,,2013-04-29 18:13:00,
2013-04-29 14:22:00,59.0,56.0,-100.00,SE,134,11.0,-999.0,91,-99.99,,,-99.99,,2013-04-29 18:22:00,
2013-04-29 14:32:00,58.0,56.0,-100.00,SE,126,11.0,-999.0,92,-99.99,,,-99.99,,2013-04-29 18:32:00,
2013-04-29 14:42:00,58.0,56.0,-100.00,SE,126,11.0,-999.0,92,-99.99,,,-99.99,,2013-04-29 18:42:00,
2013-04-29 14:52:00,59.0,56.0,-100.00,SE,125,9.0,-999.0,92,-99.99,,,-99.99,,2013-04-29 18:52:00,
2013-04-29 15:01:00,58.0,56.0,-100.00,SE,128,11.0,-999.0,93,-99.99,,,-99.99,,2013-04-29 19:01:00,
2013-04-29 15:12:00,58.0,56.0,-100.00,SE,128,11.0,-999.0,93,-99.99,,,-99.99,,2013-04-29 19:12:00,
2013-04-29 15:21:00,58.0,56.0,-100.00,ESE,120,10.0,-999.0,92,-99.99,,,-99.99,,2013-04-29 19:21:00,
2013-04-29 15:32:00,58.0,56.0,-100.00,ESE,118,9.0,-999.0,91,-99.99,,,-99.99,,2013-04-29 19:32:00,
2013-04-29 15:41:00,58.0,56.0,-100.00,ESE,118,9.0,-999.0,91,-99.99,,,-99.99,,2013-04-29 19:41:00,
2013-04-29 15:52:00,58.0,56.0,-100.00,ESE,122,10.0,-999.0,91,-99.99,,,-99.99,,2013-04-29 19:52:00,
2013-04-29 16:02:00,58.0,56.0,-100.00,SE,139,9.0,-999.0,92,-99.99,,,-99.99,,2013-04-29 20:02:00,
2013-04-29 16:12:00,58.0,56.0,-100.00,SE,139,9.0,-999.0,92,-99.99,,,-99.99,,2013-04-29 20:12:00,
2013-04-29 16:21:00,58.0,56.0,-100.00,SE,125,9.0,-999.0,92,-99.99,,,-99.99,,2013-04-29 20:21:00,
2013-04-29 16:32:00,59.0,56.0,-100.00,ESE,117,8.0,-999.0,92,-99.99,,,-99.99,,2013-04-29 20:32:00,
2013-04-29 16:42:00,59.0,56.0,-100.00,ESE,117,8.0,-999.0,92,-99.99,,,-99.99,,2013-04-29 20:42:00,
2013-04-29 16:52:00,59.0,56.0,-100.00,ESE,117,10.0,-999.0,90,-99.99,,,-99.99,,2013-04-29 20:52:00,
2013-04-29 17:01:00,58.0,56.0,-100.00,ESE,107,11.0,-999.0,91,-99.99,,,-99.99,,2013-04-29 21:01:00,
2013-04-29 17:11:00,58.0,56.0,-100.00,ESE,107,11.0,-999.0,91,-99.99,,,-99.99,,2013-04-29 21:11:00,
2013-04-29 17:21:00,58.0,55.0,-100.00,ESE,112,14.0,-999.0,87,-99.99,,,-99.99,,2013-04-29 21:21:00,
2013-04-29 17:33:00,58.0,54.0,-100.00,ESE,118,14.0,-999.0,88,-99.99,,,-99.99,,2013-04-29 21:33:00,
2013-04-29 17:42:00,58.0,54.0,-100.00,ESE,118,14.0,-999.0,88,-99.99,,,-99.99,,2013-04-29 21:42:00,
2013-04-29 17:53:00,58.0,54.0,-100.00,ESE,114,13.0,-999.0,86,-99.99,,,-99.99,,2013-04-29 21:53:00,
2013-04-29 18:02:00,58.0,54.0,-100.00,ESE,112,12.0,-999.0,87,-99.99,,,-99.99,,2013-04-29 22:02:00,
2013-04-29 18:13:00,58.0,54.0,-100.00,ESE,112,12.0,-999.0,87,-99.99,,,-99.99,,2013-04-29 22:13:00,
2013-04-29 18:23:00,58.0,54.0,-100.00,ESE,113,12.0,-999.0,87,-99.99,,,-99.99,,2013-04-29 22:23:00,
2013-04-29 18:32:00,57.0,54.0,-100.00,ESE,108,12.0,-999.0,89,-99.99,,,-99.99,,2013-04-29 22:32:00,
2013-04-29 18:42:00,57.0,54.0,-100.00,ESE,108,12.0,-999.0,89,-99.99,,,-99.99,,2013-04-29 22:42:00,
2013-04-29 18:53:00,57.0,55.0,-100.00,East,101,8.0,-999.0,91,-99.99,,,-99.99,,2013-04-29 22:53:00,
2013-04-29 19:02:00,57.0,55.0,-100.00,East,98,11.0,-999.0,92,-99.99,,,-99.99,,2013-04-29 23:02:00,
2013-04-29 19:12:00,57.0,55.0,-100.00,East,98,11.0,-999.0,92,-99.99,,,-99.99,,2013-04-29 23:12:00,
2013-04-29 19:22:00,57.0,54.0,-100.00,ESE,103,13.0,-999.0,92,-99.99,,,-99.99,,2013-04-29 23:22:00,
2013-04-29 19:32:00,56.0,54.0,-100.00,East,94,13.0,-999.0,91,-99.99,,,-99.99,,2013-04-29 23:32:00,
2013-04-29 19:42:00,56.0,54.0,-100.00,East,94,13.0,-999.0,91,-99.99,,,-99.99,,2013-04-29 23:42:00,
2013-04-29 19:53:00,56.0,54.0,-100.00,East,91,13.0,-999.0,92,-99.99,,,-99.99,,2013-04-29 23:53:00,
2013-04-29 20:01:00,56.0,54.0,-100.00,East,89,11.0,-999.0,92,-99.99,,,-99.99,,2013-04-30 00:01:00,
2013-04-29 20:11:00,56.0,54.0,-100.00,East,89,11.0,-999.0,92,-99.99,,,-99.99,,2013-04-30 00:11:00,
2013-04-29 20:21:00,56.0,54.0,-100.00,East,96,11.0,-999.0,93,-99.99,,,-99.99,,2013-04-30 00:21:00,
2013-04-29 20:32:00,56.0,54.0,-100.00,East,96,9.0,-999.0,93,-99.99,,,-99.99,,2013-04-30 00:32:00,
2013-04-29 20:42:00,56.0,54.0,-100.00,East,96,9.0,-999.0,93,-99.99,,,-99.99,,2013-04-30 00:42:00,
2013-04-29 20:52:00,55.0,54.0,-100.00,East,89,8.0,-999.0,95,-99.99,,,-99.99,,2013-04-30 00:52:00,
2013-04-29 21:02:00,55.0,54.0,-100.00,East,87,9.0,-999.0,96,-99.99,,,-99.99,,2013-04-30 01:02:00,
2013-04-29 21:11:00,55.0,54.0,-100.00,East,87,9.0,-999.0,96,-99.99,,,-99.99,,2013-04-30 01:11:00,
2013-04-29 21:22:00,55.0,54.0,-100.00,East,84,8.0,-999.0,97,-99.99,,,-99.99,,2013-04-30 01:22:00,
2013-04-29 21:32:00,55.0,54.0,-100.00,East,88,8.0,-999.0,98,-99.99,,,-99.99,,2013-04-30 01:32:00,
2013-04-29 21:41:00,55.0,54.0,-100.00,East,88,8.0,-999.0,98,-99.99,,,-99.99,,2013-04-30 01:41:00,
2013-04-29 21:52:00,55.0,54.0,-100.00,East,83,8.0,-999.0,98,-99.99,,,-99.99,,2013-04-30 01:52:00,
2013-04-29 22:01:00,55.0,54.0,-100.00,East,89,10.0,-999.0,98,-99.99,,,-99.99,,2013-04-30 02:01:00,
2013-04-29 22:11:00,55.0,54.0,-100.00,East,89,10.0,-999.0,98,-99.99,,,-99.99,,2013-04-30 02:11:00,
2013-04-29 22:21:00,54.0,54.0,-100.00,East,85,10.0,-999.0,98,-99.99,,,-99.99,,2013-04-30 02:21:00,
2013-04-29 22:31:00,55.0,54.0,-100.00,East,93,9.0,-999.0,97,-99.99,,,-99.99,,2013-04-30 02:31:00,
2013-04-29 22:41:00,55.0,54.0,-100.00,East,93,9.0,-999.0,97,-99.99,,,-99.99,,2013-04-30 02:41:00,
2013-04-29 22:52:00,54.0,54.0,-100.00,East,81,8.0,-999.0,97,-99.99,,,-99.99,,2013-04-30 02:52:00,
2013-04-29 23:01:00,54.0,53.0,-100.00,East,83,10.0,-999.0,98,-99.99,,,-99.99,,2013-04-30 03:01:00,
2013-04-29 23:11:00,54.0,53.0,-100.00,East,83,10.0,-999.0,98,-99.99,,,-99.99,,2013-04-30 03:11:00,
2013-04-29 23:21:00,54.0,53.0,-100.00,ENE,78,10.0,-999.0,98,-99.99,,,-99.99,,2013-04-30 03:21:00,
2013-04-29 23:33:00,54.0,54.0,-100.00,ENE,78,8.0,-999.0,98,-99.99,,,-99.99,,2013-04-30 03:33:00,
2013-04-29 23:42:00,54.0,54.0,-100.00,ENE,78,8.0,-999.0,98,-99.99,,,-99.99,,2013-04-30 03:42:00,
2013-04-29 23:53:00,54.0,54.0,-100.00,East,79,8.0,-999.0,98,-99.99,,,-99.99,,2013-04-30 03:53:00,